BREEZE-M DEB (TANK), 35875

Orbit data source: Space-Track

BREEZE-M DEB (TANK), 35875 is space debris in HEO originally from a launch on Thu, 17 Sep 2009 UTC launched from the Tyuratam Missile And Space Complex (TTMTR). Debris objects in space refer to the collection of defunct objects orbiting the Earth. Examples of debris include non-operational satellites, rocket bodies, and fragments generated from explosions, collisions, or faulty payload assembly.

Loading next visibility...
Identifier
35875, 2009-050C
Orbit
HEO
Country
Flag of CISCIS
Related business
Manufacturer
Khrunichev
Mission
Spacecraft
Bus & Motor
BRIZ TANK, Unknown motor
Mass
~1,000 kg wet, 1,000 kg dry
Launch date (UTC)
2009-09-17 (17 years ago)
Launch vehicle
Unknown
Launch site
Tyuratam Missile And Space Complex (TTMTR)
Object type
Payload
Rocket body
Debris
Shape & HBR
Torus, 2.0 m
Radar Cross Section
8.218 m², Large (>1 m²)

Expand to show TLE details & history
Last TLE update: 1 day ago

TLE from 1 day ago
0 BREEZE-M DEB (TANK)
1 35875U 09050C   26149.31401710  .00001117  00000-0  50309-3 0  9991
2 35875  49.3737 254.5374 5928503 300.4270  14.1995  4.11056063243016
Epoch: 2026-05-29T07:32Z
TLE epoch observation values (Epoch: 2026-05-29T07:32:11.077Z)
Latitude
-0.00008°
Longitude
-105.38762°
Altitude
1,835.204 km
Speed
8.536 km/s
True Right ascension
16h 58m 01s
True Declination
0° 00' 00"
Sunlit
Object was in full shadow at epoch
Visualization orbit readout
Latitude
Unknown
Longitude
Unknown
Altitude
Unknown
Speed
Unknown
Apparent Right ascension
Unknown
Apparent Declination
Unknown
Sunlit
N/A
Visualization observer readout
Local Sidereal Time
01:54:49
Azimuth
Unknown
Elevation
Unknown
Doppler factor
Unknown
Orbital elements
Apogee altitude
19,843.597 km
Perigee altitude
324.421 km
Semi-major axis
16,462.146 km
Eccentricity
0.59285
Inclination
49.3737°
RAAN
254.5374°
Arg. of periapsis
300.427°
True anomaly
59.76808°
Mean anomaly
14.1995°
Eccentric anomaly
32.40074°
Mean motion
1.02757 °/min
Orbital period
350.34 mins
BSTAR
0.00050309
Loading maneuver chart data...
Computing Atmospheric mass density...
Loading historical data...
Loading historical data...
Loading historical data...
Loading historical data...
Loading historical data...
Loading historical data...
Loading historical data...
Other satellites on launch #50 in the year 2009 (2009-09-17 UTC)

Documentation

Showing up to 5 results
|